Regional Weather Roundup
Issued by NWS Northern Indiana

Home | Current Version | Previous Version | Text Only | Print | Product List | Glossary On
Versions: 1 2 3 4 5 6 7 8 9 10 11 12 13 14 15 16 17 18 19 20 21 22 23 24 25 26 27 28 29 30 31 32 33 34 35 36 37 38 39 40 41 42 43 44 45 46 47 48 49 50
000
ASUS43 KIWX 011810
RWRIWX

KIWX WEATHER ROUNDUP
NATIONAL WEATHER SERVICE NORTHERN INDIANA
200 PM EDT WED OCT 01 2014

NOTE: "FAIR" INDICATES FEW OR NO CLOUDS BELOW 12,000 FEET WITH NO
SIGNIFICANT WEATHER AND/OR OBSTRUCTIONS TO VISIBILITY.

* THESE STATIONS ARE NOT UNDER NWS QUALITY CONTROL. THEY ALSO MAY NOT
  REPORT WEATHER SUCH AS PRECIPITATION OR FOG.

INZ001>027-011900-
NORTHERN INDIANA

CITY           SKY/WX    TMP DP  RH WIND       PRES   REMARKS
GARY*          MOSUNNY   68  50  52 SE9       30.00F
VALPARAISO     SUNNY     65  49  56 E9        30.01F
6HR MIN TEMP:  45; 6HR MAX TEMP:  66;

MICHIGAN CITY* SUNNY     64  46  52 S6        30.01F
LAPORTE*       SUNNY     66  52  59 SE7       30.02F
6HR MIN TEMP:  49; 6HR MAX TEMP:  67;

KNOX*          PTSUNNY   64  49  58 S8        30.01F
6HR MIN TEMP:  38; 6HR MAX TEMP:  81;

SOUTH BEND     SUNNY     66  48  52 S7G16     30.03F
ELKHART*       PTSUNNY   63  48  59 SE8       30.04F
GOSHEN         MOSUNNY   64  50  60 S8        30.03
6HR MIN TEMP:  46; 6HR MAX TEMP:  64;

MONTICELLO*    SUNNY     66  53  64 E6        30.00F
6HR MIN TEMP:  45; 6HR MAX TEMP:  66;

LOGANSPORT*    SUNNY     63  50  63 E6        30.03F
ROCHESTER*     MOSUNNY   63  52  67 SE8       30.04F
WARSAW*        MOSUNNY   63  50  63 S5        30.04F
ANGOLA*        CLOUDY    61  52  72 SE6       30.05F
FORT WAYNE     MOSUNNY   61  51  70 SE7       30.05F
6HR MIN TEMP:  50; 6HR MAX TEMP:  62;

HUNTINGTON*    PTSUNNY   61  52  73 E3        30.04F
6HR MIN TEMP:  44; 6HR MAX TEMP:  61;

PERU/GRISSOM   SUNNY     64  55  75 SE3       30.02F
6HR MIN TEMP:  47; 6HR MAX TEMP:  64;

MARION*        SUNNY     62  49  63 SE3       30.04F
6HR MIN TEMP:  40; 6HR MAX TEMP:  90;


$$
INZ028>050-011900-
CENTRAL INDIANA

CITY           SKY/WX    TMP DP  RH WIND       PRES   REMARKS
LAFAYETTE      MOSUNNY   69  55  60 SE7       29.99F
6HR MIN TEMP:  44; 6HR MAX TEMP:  69;

KOKOMO*        SUNNY     63  52  67 SE6       30.03F
6HR MIN TEMP:  46; 6HR MAX TEMP:  63;

MUNCIE*        SUNNY     63  51  65 S7        30.04F
6HR MIN TEMP:  48; 6HR MAX TEMP:  63;

INDIANAPOLIS   PTSUNNY   70  54  56 VRB7      30.00F
6HR MIN TEMP:  50; 6HR MAX TEMP:  70;


$$
MIZ043>046-050>051-056>058-064>065-071>073-077>080-011900-
SOUTHWEST LOWER MICHIGAN

CITY           SKY/WX    TMP DP  RH WIND       PRES   REMARKS
BATTLE CREEK   CLOUDY    61  49  64 S9        30.05F
6HR MIN TEMP:  52; 6HR MAX TEMP:  61;

BENTON HARBOR  MOSUNNY   62  49  62 SE13G18   30.02F
6HR MIN TEMP:  52; 6HR MAX TEMP:  63;

COLDWATER*     CLOUDY    61  49  64 S5        30.05F
6HR MIN TEMP:  53; 6HR MAX TEMP:  61;

HILLSDALE*     CLOUDY    63  49  59 S5        30.06F
6HR MIN TEMP:  52; 6HR MAX TEMP:  63;

GRAND RAPIDS   CLOUDY    60  51  72 SE8       30.04F
6HR MIN TEMP:  53; 6HR MAX TEMP:  60;

KALAMAZOO      PTSUNNY   61  48  62 VRB6      30.05F
6HR MIN TEMP:  52; 6HR MAX TEMP:  61;

STURGIS*       PTSUNNY   61  50  67 SE9       30.04F
THREE RIVERS*  PTSUNNY   62  51  67 S6        30.05F

$$
OHZ001>008-015>018-024>025-011900-
NORTHWEST OHIO

CITY           SKY/WX    TMP DP  RH WIND       PRES   REMARKS
WAUSEON*       CLOUDY    63  50  63 SE3       30.06F
DEFIANCE       CLOUDY    63  49  60 E7        30.06F
6HR MIN TEMP:  47; 6HR MAX TEMP:  64;

FINDLAY        CLOUDY    66  50  56 S3        30.04F
6HR MIN TEMP:  50; 6HR MAX TEMP:  66;

TOLEDO EXPRESS CLOUDY    63  51  65 W5        30.06S
6HR MIN TEMP:  47; 6HR MAX TEMP:  63;

TOLEDO METCALF PTSUNNY   66  51  58 SE3       30.06F
6HR MIN TEMP:  47; 6HR MAX TEMP:  66;

LIMA           CLOUDY    67  49  52 VRB7      30.04F
6HR MIN TEMP:  47; 6HR MAX TEMP:  68;


$$
AND FOR LAKE MICHIGAN COASTAL AND OPEN LAKE BUOY OBSERVATIONS

STATION/POSITION TEMP    WIND        PRES    VSBY  WAVE
                 AIR SEA DIR/SP/G                  HT/PER
                 (F)     (DEG/KT/KT) (MB)    (MI)  (FT/S)
CALUMET HARBOR    63      80/  8/ 10 1014.4F
MICHIGAN CITY     63     130/  6/ 10   N/A
SAINT JOSEPH      65     140/  1/  6 1016.9F
SOUTH LAKE BUOY   57 61  140/ 12/ 16 1016.7F         1/ 3
4 MI NW BRIDGMAN  61 63  110/  6/ 12   N/A           1/ 2
MICHIGAN CITY     63 65  150/  6/  8   N/A           1/ 2

$$
&&


USA.gov is the U.S. government's official web portal to all federal, state and local government web resources and services.